Weather History for New York, NY

Change the Weather History Date:

Sunday, April 28, 2013

  Actual Average Record
Temperature  
Mean Temperature 60 °F 57 °F  
Max Temperature 69 °F 66 °F 89 °F (2009)
Min Temperature 51 °F 48 °F 36 °F (1947)
Degree Days  
Heating Degree Days 5 9  
Month to date heating degree days 347 362  
Since 1 July heating degree days 4294 4498  
Cooling Degree Days 0 0  
Month to date cooling degree days 0 0  
Year to date cooling degree days 0 0  
Growing Degree Days 10 (Base 50)    
Moisture  
Dew Point 34 °F    
Average Humidity 39    
Maximum Humidity 59    
Minimum Humidity 18    
Precipitation  
Precipitation 0.00 in 0.12 in 2.64 in (1980)
Month to date precipitation 1.12 3.76  
Year to date precipitation 9.39 13.66  
Snow  
Snow 0.00 in 0.00 in - ()
Month to date snowfall 0.0 0.5  
Since 1 July snowfall 22.2 26.9  
Snow Depth 0.00 in    
Sea Level Pressure  
Sea Level Pressure 30.27 in    
Wind  
Wind Speed 10 mph (SSE)    
Max Wind Speed 22 mph    
Max Gust Speed 26 mph    
Visibility 10 miles    
Events      
T = Trace of Precipitation, MM = Missing Value Source: NWS Daily Summary

Daily Weather History Graph

Daily Weather History Graph

Search for Another Location

Airport:

Trip Planner

Search our weather history database for the weather conditions in past years. The results will help you decide how hot, cold, wet, or windy it might be!

Date:

Astronomy

Apr. 28, 2013 Rise Set
Actual Time 5:57 AM EDT 7:48 PM EDT
Civil Twilight 5:28 AM EDT 8:18 PM EDT
Nautical Twilight 4:52 AM EDT 8:54 PM EDT
Astronomical Twilight 4:13 AM EDT 9:33 PM EDT
Moon 11:17 PM EDT (4/28) 8:10 AM EDT (4/28)
Length of Visible Light 14h 50m
Length of Day
13h 51m
Waning Gibbous, 89% of the Moon is Illuminated
Apr 28
Waning Gibbous
May 2
Last Quarter
May 9
New
May 18
First Quarter
May 25
Full

Hourly Weather History & Observations

Time (EDT) Temp. Dew Point Humidity Pressure Visibility Wind Dir Wind Speed Gust Speed Precip Events Conditions
12:51 AM 55.9 °F 28.9 °F 36% 30.31 in 10.0 mi South 3.5 mph - N/A   Partly Cloudy
1:51 AM 55.0 °F 30.0 °F 38% 30.30 in 10.0 mi SE 3.5 mph - N/A   Partly Cloudy
2:51 AM 54.0 °F 32.0 °F 43% 30.28 in 10.0 mi SSE 4.6 mph - N/A   Partly Cloudy
3:51 AM 53.1 °F 32.0 °F 45% 30.28 in 10.0 mi SSE 6.9 mph - N/A   Partly Cloudy
4:51 AM 52.0 °F 37.0 °F 57% 30.28 in 10.0 mi South 6.9 mph - N/A   Scattered Clouds
5:51 AM 51.1 °F 37.0 °F 59% 30.27 in 10.0 mi South 6.9 mph - N/A   Scattered Clouds
6:51 AM 52.0 °F 37.0 °F 57% 30.29 in 10.0 mi SSE 5.8 mph - N/A   Partly Cloudy
7:51 AM 54.0 °F 39.0 °F 57% 30.30 in 10.0 mi Calm Calm - N/A   Clear
8:51 AM 57.0 °F 39.0 °F 51% 30.31 in 10.0 mi Calm Calm - N/A   Partly Cloudy
9:51 AM 60.1 °F 41.0 °F 49% 30.31 in 10.0 mi SE 6.9 mph - N/A   Partly Cloudy
10:51 AM 62.1 °F 39.9 °F 44% 30.30 in 10.0 mi South 8.1 mph - N/A   Scattered Clouds
11:51 AM 64.9 °F 37.9 °F 37% 30.30 in 10.0 mi SE 8.1 mph - N/A   Mostly Cloudy
12:51 PM 66.0 °F 37.0 °F 34% 30.28 in 10.0 mi SSE 10.4 mph - N/A   Mostly Cloudy
1:51 PM 66.9 °F 34.0 °F 30% 30.27 in 10.0 mi South 12.7 mph - N/A   Overcast
2:51 PM 64.0 °F 19.9 °F 18% 30.25 in 10.0 mi South 17.3 mph - N/A   Mostly Cloudy
3:51 PM 64.9 °F 28.9 °F 26% 30.25 in 10.0 mi South 17.3 mph - N/A   Mostly Cloudy
4:51 PM 62.1 °F 27.0 °F 26% 30.23 in 10.0 mi South 19.6 mph 25.3 mph N/A   Mostly Cloudy
5:51 PM 60.1 °F 27.0 °F 28% 30.22 in 10.0 mi SSE 13.8 mph - N/A   Mostly Cloudy
6:51 PM 59.0 °F 26.1 °F 28% 30.21 in 10.0 mi South 16.1 mph - N/A   Mostly Cloudy
7:51 PM 57.0 °F 28.0 °F 33% 30.22 in 10.0 mi South 16.1 mph - N/A   Overcast
8:51 PM 55.9 °F 32.0 °F 40% 30.22 in 10.0 mi South 12.7 mph - N/A   Overcast
9:51 PM 55.9 °F 35.1 °F 45% 30.23 in 10.0 mi South 9.2 mph - N/A   Overcast
10:51 PM 55.9 °F 37.9 °F 51% 30.24 in 10.0 mi South 10.4 mph - N/A   Overcast
11:51 PM 55.0 °F 41.0 °F 59% 30.24 in 10.0 mi South 6.9 mph - N/A   Overcast